Regional Weather Roundup
Issued by NWS

Home | Current Version | Previous Version | Graphics & Text | Print | Product List | Glossary On
Versions: 1 2 3 4 5 6 7 8 9 10 11 12 13 14 15 16 17 18 19 20 21 22 23 24 25 26 27 28 29 30 31 32 33 34 35 36 37 38 39 40 41 42 43 44 45 46 47 48 49 50
000
ASUS43 KMPX 302201
RWRMN
WEATHER ROUNDUP FOR MINNESOTA
NATIONAL WEATHER SERVICE TWIN CITIES/CHANHASSEN MN
500 PM CDT WED JUL 30 2014


NOTE: "FAIR" INDICATES FEW OR NO CLOUDS BELOW 12,000 FEET WITH NO
SIGNIFICANT WEATHER AND/OR OBSTRUCTIONS TO VISIBILITY. N/A MEANS
CURRENT SKY AND/OR WEATHER CONDITIONS ARE NOT AVAILABLE.

MNZ060>063-068>070-302300-
   Twin Cities Metro

CITY           SKY/WX    TMP DP  RH WIND       PRES   REMARKS
TWIN CITIES    MOSUNNY   80  54  40 W10       30.04S
ST PAUL        MOSUNNY   79  54  41 NW14G20   30.03S
CRYSTAL        MOSUNNY   81  52  36 W12       30.03S
BLAINE         MOSUNNY   81  54  39 MISG      30.03F
LAKEVILLE      SUNNY     77  57  50 W8        30.05S
EDEN PRAIRIE   MOSUNNY   81  54  39 W9        30.04F
SOUTH ST PAUL  SUNNY     80  50  34 W10G17    30.03S
LAKE ELMO      FAIR      79  55  44 NW12      30.04S
$$
MNZ001>005-007-008-013>017-022>024-027-028-302300-
   Northwest Minnesota

CITY           SKY/WX    TMP DP  RH WIND       PRES   REMARKS
BEMIDJI        SUNNY     75  54  47 NW10      30.06F
HALLOCK        SUNNY     81  55  41 N8        30.05F
ROSEAU         SUNNY     79  61  53 W10       30.04S
WARROAD        MOSUNNY   79  59  50 NW9       30.03F
THIEF RVR FALL SUNNY     77  55  47 NW8       30.07S
CROOKSTON      SUNNY     79  55  44 N7        30.07F
FOSSTON        SUNNY     77  54  44 W8        30.08F
DETROIT LAKES  SUNNY     77  50  38 NW9       30.10F
MOORHEAD       MOSUNNY   79  54  41 N9        30.08F
PARK RAPIDS    MOSUNNY   78  52  40 W12       30.07S
$$
MNZ006-009>011-018-025>026-302300-
   North Central Minnesota

CITY           SKY/WX    TMP DP  RH WIND       PRES   REMARKS
BAUDETTE       SUNNY     78  55  44 NW8       30.03F
FLAG ISLAND    SUNNY     77  55  47 N12       30.00F
INTL FALLS     PTSUNNY   78  56  46 NW14      29.99S
WASKISH        PTSUNNY   75  61  60 W5        30.03F
BIG FORK       SUNNY     77  55  47 NW5       30.03S
LONGVILLE      SUNNY     75  57  53 NW6       30.05F
GRAND RAPIDS   MOSUNNY   75  55  50 NW12G20   30.03S
CRANE LAKE     MOSUNNY   73  57  56 NW7       29.99S
ORR            MOSUNNY   75  54  46 NW10G16   29.97S
COOK           SUNNY     77  55  47 W12G20    29.99S
$$
MNZ012-019>021-037-302300-
   Northeast Minnesota

CITY           SKY/WX    TMP DP  RH WIND       PRES   REMARKS
DULUTH         MOSUNNY   78  56  46 NW14G22   29.98S
ELY            MOSUNNY   72  57  60 NW7       29.98S
HIBBING        MOSUNNY   78  55  44 NW15      30.00S
EVELETH        MOSUNNY   77  55  47 W12       30.00S
DULUTH HARBOR  SUNNY     81  59  47 W16       29.96S
TWO HARBORS    MOSUNNY   77  57  50 N8        29.94F
SILVER BAY     MOSUNNY   70  64  83 NW5       29.94F
GRAND MARAIS     N/A     53  49  86 NE5       29.93R
G MARAIS ARPRT MOSUNNY   70  50  49 NW9G17    29.97S
$$
MNZ029>031-032-039>041-046>048-054>057-064-302300-
   West Central Minnesota

CITY           SKY/WX    TMP DP  RH WIND       PRES   REMARKS
FERGUS FALLS   MOSUNNY   79  48  34 NW9       30.08F
WHEATON        MOSUNNY   77  55  47 W6        30.10F
MORRIS         SUNNY     81  54  39 NW7       30.08F
ALEXANDRIA     SUNNY     77  54  44 NW8       30.10F
ELBOW LAKE     FAIR      76  56  50 NW9       30.09F
WADENA         SUNNY     75  54  46 W9        30.08S
GLENWOOD       MOSUNNY   77  55  47 NW9       30.10F
APPLETON       SUNNY     81  54  39 NW7       30.09S
BENSON         SUNNY     77  54  44 N9        30.09F
ORTONVILLE     SUNNY     79  54  41 NW6       30.10F
MADISON        SUNNY     79  55  44 NW7       30.10S
WILLMAR        FAIR      79  52  38 NW9       30.10F
$$
MNZ033>034-036-042>043-049>051-058-059-302300-
   Central Minnesota

CITY           SKY/WX    TMP DP  RH WIND       PRES   REMARKS
ST CLOUD       MOSUNNY   83  53  35 NW7       30.05F
SAUK CENTRE    FAIR      78  53  41 W9        30.08F
PAYNESVILLE    MOSUNNY   77  51  40 W10       30.08F
AITKIN         SUNNY     79  59  50 CALM      30.03S
PINE RIVER     MOSUNNY   77  57  50 NW7       30.08F
BRAINERD       PTSUNNY   76  56  49 N10       30.05F
STAPLES        SUNNY     79  50  36 W12G17    30.07S
LONG PRAIRIE   FAIR      75  54  46 NW8       30.08F
LITTLE FALLS   SUNNY     79  50  36 W10       30.06S
LITCHFIELD     PTSUNNY   79  57  47 W7        30.08F
BUFFALO        SUNNY     80  53  39 W8        30.06F
MAPLE LAKE     SUNNY     79  57  47 NW8       30.07S
$$
MNZ037-044-045-052-053-302300-
   East Central Minnesota

CITY           SKY/WX    TMP DP  RH WIND       PRES   REMARKS
PRINCETON      MOSUNNY   81  55  41 W9        30.04F
MORA           SUNNY     75  54  46 NW12      30.05S
CAMBRIDGE      PTSUNNY   81  61  50 W6        30.02S
RUSH CITY      SUNNY     78  56  47 W7        30.03S
MOOSE LAKE     SUNNY     77  55  47 NW9G16    29.99S
HINCKLEY       FAIR      77  59  53 W8G17     30.01S
CLOQUET        MOSUNNY   77  54  44 NW13G20   30.00S
MCGREGOR       SUNNY     77  55  47 NW9       30.03S
$$
MNZ071>073-080-081-089-090-097-098-302300-
   Southwest Minnesota

CITY           SKY/WX    TMP DP  RH WIND       PRES   REMARKS
MONTEVIDEO     SUNNY     81  55  41 N8        30.10F
GRANITE FALLS  SUNNY     77  53  43 W9        30.11F
CANBY          SUNNY     80  51  37 N5        30.11F
MARSHALL       MOSUNNY   77  52  41 N8        30.10F
REDWOOD FALLS  MOSUNNY   79  54  41 NW8       30.09S
OLIVIA         MOSUNNY   77  55  47 NW6       30.08F
PIPESTONE      MOSUNNY   75  52  43 W6        30.13F
WINDOM         MOSUNNY   77  54  44 NW7       30.12S
WORTHINGTON    MOSUNNY   75  52  43 NE5       30.14S
JACKSON        SUNNY     77  52  41 NW8       30.12F
TRACY          SUNNY     77  55  45 NW7       30.12S
SLAYTON        PTSUNNY   76  49  37 CALM      30.13F
$$
MNZ065>067-074>077-082>085-091>093-302300-
   South Central Minnesota

CITY           SKY/WX    TMP DP  RH WIND       PRES   REMARKS
MANKATO        MOSUNNY   79  54  41 W13       30.07F
NEW ULM        SUNNY     79  55  44 NW10      30.08F
ST JAMES       MOSUNNY   81  54  39 W5        30.10F
FAIRMONT       SUNNY     77  46  33 NW7       30.10S
GLENCOE        SUNNY     79  53  40 NW6       30.07S
FARIBAULT      MOSUNNY   82  52  34 W9        30.06F
OWATONNA       MOSUNNY   79  54  41 W9        30.07S
WASECA         SUNNY     77  54  44 NW8       30.09F
ALBERT LEA     SUNNY     79  55  44 W3        30.07F
$$
MNZ078>079-086>088-094>096-302300-
   Southeast Minnesota

CITY           SKY/WX    TMP DP  RH WIND       PRES   REMARKS
ROCHESTER      MOSUNNY   76  58  53 NW6       30.07F
RED WING       MOSUNNY   82  55  39 NW8       30.02S
STANTON        SUNNY     80  56  43 NW10      30.03F
DODGE CENTER   SUNNY     79  55  44 NW9       30.07S
WINONA         SUNNY     79  59  50 CALM      30.04S
AUSTIN         MOSUNNY   77  57  50 NW9       30.07S
PRESTON        SUNNY     75  63  66 N6        30.07F
$$
ABBREVIATIONS USED IN REMARKS
   TC - TEMPERATURES IN CELSIUS
  WCI - WIND CHILL INDEX
   HX - HEAT INDEX
  VSB - VISIBILITY
$$


USA.gov is the U.S. government's official web portal to all federal, state and local government web resources and services.